Theta_e
311 311 310 310 310 310 310 310 309 310 309 309 310 309 310 309 310 309 309 310 310 310 310 310 311 312 313 314 314 316 317 317 317 316 316 316 316 316 316 316 316 317 318 317 318 318 318 317 316 316 316 317 317 318 320 322 321 320 325 324 323 327 326 328 326 319 321 322 318 316 317 317 318 317 317 317 317 317 316 317 317 317 317 316 316 316 316 317
310 311 310 310 310 310 310 310 310 310 309 309 310 309 310 309 310 310 310 310 310 310 310 310 310 310 311 312 313 314 315 316 317 317 316 316 316 316 316 316 315 316 317 318 318 318 319 318 317 317 316 317 318 319 320 321 320 321 327 325 326 332 326 322 320 317 318 318 317 316 317 317 317 317 316 317 317 316 316 316 316 316 316 316 316 316 316 316
310 310 310 310 310 310 310 310 310 310 310 310 309 310 310 310 310 310 310 310 310 310 310 310 310 310 310 310 311 312 313 315 315 315 317 318 317 316 315 316 315 315 316 318 318 318 318 318 317 317 316 317 318 320 321 322 321 320 323 327 332 330 322 319 318 318 318 318 317 316 317 316 316 317 316 316 316 316 316 316 314 315 316 316 316 315 315 315
310 310 310 310 310 310 310 310 310 310 310 310 310 310 310 310 310 310 310 310 310 310 310 310 310 310 310 310 310 311 313 314 316 317 317 318 318 318 317 316 315 315 315 317 318 318 318 318 318 317 316 317 317 319 321 321 321 320 321 327 329 321 318 320 318 318 318 318 317 316 316 316 316 317 315 315 316 316 315 315 315 316 316 316 315 315 315 315
310 310 310 310 310 310 310 310 311 311 311 311 311 311 311 311 311 311 311 311 311 311 311 311 311 311 310 310 310 310 312 315 320 320 317 317 317 317 317 317 316 315 315 315 317 317 317 317 318 317 316 317 316 319 321 321 320 320 319 320 320 317 319 320 317 318 317 317 317 315 316 316 316 316 315 315 316 317 316 316 317 316 317 316 316 316 315 315
310 310 310 310 310 310 311 311 311 311 312 312 312 312 311 312 312 312 312 312 313 312 313 313 312 312 311 311 310 310 311 314 318 318 315 315 316 316 316 316 316 315 314 315 316 317 317 317 317 317 316 316 317 319 320 320 320 320 320 317 317 318 318 318 318 317 317 316 316 315 315 315 315 316 316 315 315 317 316 317 317 316 316 316 316 316 315 315
310 310 310 310 311 311 311 311 311 311 312 312 312 312 312 313 313 313 313 313 314 314 314 314 314 314 313 312 311 312 313 313 314 315 315 315 317 317 316 316 316 315 314 315 315 316 317 317 317 317 317 317 317 318 318 319 318 320 321 317 317 318 317 318 317 317 317 316 316 315 315 314 315 316 316 315 316 316 317 316 317 317 316 316 316 316 316 316
310 310 310 310 311 311 311 311 311 312 312 312 313 313 313 313 313 314 314 314 314 314 314 314 315 314 314 313 312 313 315 316 317 318 317 318 318 317 316 316 315 314 313 314 315 315 316 316 317 317 317 318 318 318 318 318 317 318 320 317 316 317 317 317 317 316 316 316 316 315 314 314 315 315 314 315 316 316 316 316 316 316 316 316 316 316 316 316
310 310 310 310 310 310 311 311 311 312 312 312 313 313 313 313 313 313 314 314 314 314 315 315 315 314 314 313 313 315 317 318 319 318 317 317 317 315 315 315 315 314 313 313 314 314 316 316 317 317 317 318 318 318 317 318 319 317 317 316 315 316 317 317 317 316 316 316 316 315 314 314 314 314 314 315 317 316 316 316 316 316 316 316 315 315 316 315
310 310 310 310 310 310 310 311 311 311 311 312 312 312 312 313 313 313 313 313 313 314 314 314 314 314 314 313 314 316 317 318 317 316 316 316 315 314 314 315 315 314 313 313 314 314 315 315 316 317 317 317 317 317 317 318 319 317 315 316 314 315 316 316 316 316 316 315 315 315 316 314 313 314 315 316 316 316 316 316 316 315 315 316 315 315 315 315
312 312 312 312 312 312 312 312 312 311 311 312 312 312 312 312 312 313 313 313 313 313 314 314 314 313 314 313 314 316 316 316 316 316 316 315 315 315 314 315 315 315 314 313 313 314 314 315 315 316 316 317 316 316 317 317 317 316 315 316 315 315 315 316 316 315 315 315 315 315 315 313 313 314 315 316 316 315 316 316 316 316 316 316 315 315 315 315
313 313 313 313 314 314 314 313 313 313 313 313 313 313 313 313 313 313 313 313 313 314 314 314 313 313 313 313 314 315 315 315 316 315 316 316 316 315 314 314 315 316 315 313 313 313 314 314 315 316 316 316 316 316 316 316 315 316 315 317 317 315 316 316 315 315 314 315 315 314 315 315 314 314 315 316 316 315 315 315 316 316 316 316 316 315 315 315
312 312 312 313 313 313 314 314 314 314 315 315 315 315 314 314 314 314 314 314 314 314 314 314 313 313 313 313 315 315 316 316 316 316 316 316 316 315 315 314 315 316 316 315 314 313 314 315 314 315 315 315 316 315 315 315 315 316 315 316 317 316 318 316 315 316 314 314 315 314 316 319 317 314 315 316 317 315 314 315 315 315 316 316 316 316 316 316
311 311 311 311 311 312 312 312 312 313 314 314 314 314 315 315 315 315 315 315 315 314 314 314 313 313 312 313 315 315 315 316 316 316 316 316 316 316 315 314 314 315 315 315 314 313 314 316 315 314 314 315 315 315 315 315 315 316 315 316 317 317 320 318 314 315 315 314 314 315 316 318 317 315 315 316 316 315 313 314 315 315 315 316 316 316 316 316
313 313 313 312 312 312 312 312 311 312 312 312 313 312 313 313 314 314 315 315 315 315 314 314 313 313 313 314 315 316 316 316 317 317 316 316 316 315 315 314 314 314 315 314 313 312 313 314 314 313 314 314 314 315 317 319 319 317 316 320 321 319 319 318 314 314 316 315 312 315 317 316 316 316 315 315 316 315 313 314 315 315 315 315 315 316 316 316
315 315 315 315 315 315 315 314 313 313 312 312 311 311 311 312 312 312 313 313 313 314 314 314 314 314 314 315 316 316 317 317 317 316 316 316 316 315 315 314 314 314 314 313 312 312 312 312 312 313 314 314 316 317 318 320 322 319 317 319 321 320 317 318 318 314 314 315 312 314 318 317 317 316 315 316 315 314 313 314 316 316 316 316 316 316 316 316
316 316 316 316 317 317 317 317 317 316 315 314 313 313 313 312 312 311 311 311 311 312 312 314 317 316 315 316 316 316 316 316 316 316 316 316 316 315 314 314 315 314 314 312 312 311 312 313 314 315 315 315 317 319 319 319 321 321 319 318 319 319 317 318 322 315 311 315 315 314 315 316 318 315 314 315 315 315 313 314 316 317 316 316 316 316 316 316
316 316 316 316 316 317 317 318 318 318 319 319 318 317 317 316 315 313 312 311 311 312 312 314 317 316 316 316 316 316 316 316 317 316 316 315 315 314 314 315 314 314 313 312 313 312 313 313 314 317 317 316 316 317 319 318 318 319 321 321 319 319 317 317 320 316 313 316 315 315 314 314 315 313 313 314 314 314 313 315 316 317 317 317 316 316 316 316
314 315 315 315 315 315 315 315 316 317 319 320 320 320 319 319 317 314 314 313 313 315 316 316 316 316 317 317 316 316 316 317 317 316 315 315 314 314 315 314 314 314 313 314 315 313 313 314 315 318 318 316 315 315 316 316 315 318 319 319 319 318 316 316 317 317 316 316 316 315 314 314 314 313 313 313 314 313 312 314 315 315 316 316 316 315 315 315
313 313 312 312 312 312 312 312 312 313 315 316 318 319 319 317 316 315 315 315 314 315 316 316 316 316 316 316 316 317 317 316 316 316 315 315 314 314 314 314 314 313 313 318 319 313 313 316 318 319 317 315 315 314 315 315 315 316 316 317 317 316 316 315 317 318 315 315 317 317 315 314 314 314 313 312 313 312 311 311 312 314 315 315 315 315 315 315
311 310 310 310 309 309 309 309 309 309 310 311 313 314 316 315 314 315 314 314 314 313 314 314 314 315 315 316 316 316 317 317 316 316 315 315 315 314 314 313 314 315 314 315 318 315 314 316 317 317 316 315 316 315 314 314 314 315 315 316 316 316 317 316 317 318 315 315 317 316 316 315 314 314 313 312 313 313 312 311 312 312 313 314 314 315 315 316
310 309 309 309 309 309 309 308 308 308 308 309 310 312 314 313 313 313 312 312 313 313 312 312 312 313 313 314 315 316 316 316 315 315 315 315 314 314 314 313 314 315 314 313 315 316 316 316 315 314 314 315 315 315 315 315 315 315 316 316 317 317 317 316 317 319 315 315 319 319 316 314 314 314 313 312 313 313 314 314 314 314 314 314 315 315 315 316
312 311 311 311 311 311 311 309 309 309 309 310 311 311 312 312 312 310 310 312 314 314 312 313 312 312 312 312 314 316 315 315 315 315 315 315 313 313 313 313 313 314 315 315 315 316 316 316 315 312 314 315 315 315 316 316 315 316 316 317 317 317 317 316 317 319 316 316 321 320 316 314 314 314 314 313 312 313 314 315 315 315 315 315 315 316 316 315
315 314 313 313 313 314 312 310 310 310 308 309 311 312 311 311 310 309 310 313 314 313 312 314 313 311 312 312 312 314 315 315 315 314 315 315 313 313 312 312 313 314 315 314 314 315 315 316 315 314 315 316 316 315 316 316 315 316 317 317 317 317 318 316 317 319 318 318 318 317 316 315 315 315 315 315 314 314 314 314 315 315 315 316 315 316 316 316
319 318 317 316 317 318 316 313 312 309 307 310 312 312 312 310 310 310 311 314 315 313 313 313 312 311 311 311 312 313 314 314 314 314 314 315 314 313 312 312 312 313 313 314 314 314 313 314 316 317 317 317 317 316 317 318 316 316 318 319 318 318 318 317 317 317 319 322 319 316 319 319 319 319 316 316 316 315 314 313 314 314 315 316 315 316 317 317
322 321 321 320 321 321 319 317 315 310 309 311 312 312 312 310 310 311 311 314 316 314 312 313 313 313 312 312 313 313 313 313 313 313 313 314 314 314 313 313 313 313 313 313 313 313 314 313 316 318 319 319 319 318 320 320 316 316 321 324 320 319 319 319 319 318 322 326 320 317 321 321 320 321 318 317 318 318 316 316 314 312 314 316 317 317 317 317
323 323 323 323 323 322 321 320 318 314 310 310 310 310 311 310 309 311 311 314 317 315 314 314 313 314 314 313 314 313 314 314 313 313 313 313 314 313 314 314 313 313 313 314 314 316 315 314 318 319 318 320 319 318 321 321 317 317 324 327 323 321 321 321 322 323 324 324 319 318 321 320 319 319 319 319 319 319 317 317 316 313 313 316 317 317 317 317
323 323 323 323 323 324 322 322 321 318 314 311 309 310 311 310 309 311 312 315 317 317 316 314 312 314 314 313 313 312 312 313 314 314 313 313 313 313 314 313 313 314 315 315 316 318 318 318 321 321 318 319 318 317 321 321 319 319 322 325 324 322 323 323 322 323 324 321 319 320 319 319 319 317 317 317 315 317 316 316 316 313 313 316 317 317 316 316
323 323 323 323 323 324 323 323 322 320 319 314 310 310 311 310 309 311 314 315 316 316 316 315 313 314 313 313 313 312 311 311 312 313 312 312 313 312 313 312 312 313 313 313 315 316 318 317 316 320 321 318 320 323 324 323 320 318 319 322 325 325 323 320 319 320 322 320 319 320 319 318 318 315 317 316 315 317 315 315 316 313 313 316 316 316 316 316
323 323 323 322 322 323 323 324 323 321 322 317 311 311 310 310 311 312 314 314 314 315 313 312 313 313 313 313 314 312 312 310 310 311 311 311 312 311 311 311 311 315 316 314 315 314 313 311 311 317 318 316 322 321 315 317 318 315 317 320 325 328 325 323 323 321 320 318 318 321 320 317 318 318 318 318 317 317 316 315 315 313 312 315 316 316 317 317
324 323 323 323 323 324 323 324 323 322 322 317 311 310 310 312 314 315 314 312 312 316 313 312 313 313 313 315 316 314 312 311 309 311 312 311 311 310 311 312 312 317 320 316 315 314 312 312 314 316 313 313 319 316 311 313 314 315 320 322 324 328 327 324 322 319 318 318 318 321 320 317 317 318 317 316 316 316 316 316 317 316 313 313 315 317 316 317
325 324 324 324 324 323 323 323 324 322 321 318 312 310 311 313 314 314 314 313 315 317 317 317 316 314 314 314 317 316 314 313 309 310 314 314 314 312 311 314 315 317 320 318 316 315 315 314 315 315 312 313 318 318 317 317 315 316 321 321 320 323 322 320 321 320 319 320 319 318 318 317 316 316 316 316 317 317 316 315 315 317 314 312 315 317 316 317
325 324 324 324 323 323 323 323 323 322 321 319 312 310 314 315 315 315 314 314 316 317 318 322 319 317 316 316 319 318 315 316 312 309 313 314 314 314 312 315 317 316 319 320 318 318 321 318 314 314 314 314 316 317 318 319 317 315 318 319 319 320 319 320 324 323 318 320 321 316 316 318 318 319 319 317 317 317 315 313 313 314 314 314 316 317 316 316
325 324 324 323 323 323 322 322 322 321 320 316 311 311 314 315 316 317 316 315 315 315 318 322 319 317 317 318 322 320 316 318 315 310 313 314 313 316 316 314 314 315 316 317 319 321 322 319 316 317 317 315 315 314 316 320 318 314 317 319 318 322 324 322 324 322 317 324 325 316 317 322 319 320 323 318 315 313 311 313 314 314 316 316 316 317 316 315
323 324 323 323 322 321 321 321 321 320 318 315 312 313 314 315 317 318 318 318 315 314 314 317 318 318 319 321 323 321 316 318 318 313 314 315 315 320 321 315 312 313 314 316 320 321 318 319 318 316 315 315 315 314 315 321 321 315 318 319 316 320 323 318 320 320 316 321 321 316 320 324 318 316 319 317 315 314 311 312 312 312 314 314 313 315 315 314
321 321 321 321 321 321 320 320 320 319 317 314 313 313 314 317 319 317 316 315 313 312 313 315 318 320 321 322 324 321 317 318 318 316 315 315 316 319 320 316 312 312 314 316 321 319 316 321 320 313 312 313 312 312 313 316 319 317 317 317 316 318 320 317 321 322 316 316 318 317 319 320 317 316 316 315 316 315 313 312 311 310 312 312 312 314 314 315
318 318 319 319 320 320 320 319 320 319 316 314 313 314 314 316 316 314 313 313 312 313 314 314 317 319 320 321 323 322 319 319 318 317 318 317 316 317 316 316 313 311 312 314 318 320 317 318 319 315 315 312 305 307 312 311 314 318 319 318 316 317 319 320 322 323 319 318 318 317 316 315 315 316 317 316 316 315 314 314 313 311 311 310 311 313 314 316
316 316 316 316 316 317 318 318 319 318 314 312 313 314 315 315 313 312 312 313 314 315 315 314 315 317 317 316 317 318 318 320 318 317 320 319 317 317 316 317 315 312 311 311 315 321 318 315 317 315 316 314 307 310 316 311 309 315 317 316 317 320 322 321 320 320 319 318 317 316 315 314 313 314 314 315 316 317 316 314 313 313 311 310 311 312 314 316
315 316 316 316 315 315 316 318 318 316 312 312 313 314 315 315 313 312 313 313 314 314 314 314 315 316 315 314 314 314 315 317 317 317 318 318 318 317 316 316 316 313 311 311 313 317 316 316 317 314 312 313 311 313 320 317 312 312 314 315 315 317 321 322 319 319 318 317 316 316 315 314 315 316 314 314 316 317 315 314 314 313 311 311 312 312 313 314
314 315 316 316 317 317 317 318 316 313 311 312 312 313 314 314 313 312 313 313 313 314 315 316 316 316 316 315 314 314 314 315 316 316 316 317 317 316 315 315 316 316 313 312 313 314 315 315 315 314 312 313 313 314 319 321 317 315 316 317 315 314 318 319 316 316 317 316 316 316 316 315 317 319 317 317 318 316 315 315 315 313 311 311 312 313 314 314
312 314 315 315 316 317 317 315 312 311 312 312 312 312 312 313 313 313 312 312 313 314 314 315 317 317 317 317 317 317 317 317 317 316 316 317 316 316 316 314 314 317 316 315 316 316 317 317 316 316 315 314 315 316 317 318 318 317 316 317 316 315 316 316 315 316 317 315 315 316 315 315 316 319 320 320 322 321 317 316 315 312 310 311 313 314 315 315
310 313 314 314 315 316 315 313 311 311 312 313 313 313 312 312 313 313 312 312 313 313 312 312 315 316 316 317 317 317 318 318 318 318 317 317 316 315 315 313 313 313 314 318 320 317 317 319 317 316 317 318 318 316 315 315 314 315 316 316 317 315 314 315 315 316 315 315 315 315 315 316 315 317 319 319 320 319 315 313 314 312 311 313 314 313 314 314
309 312 313 313 314 315 315 314 312 311 311 312 313 313 312 312 313 313 312 312 313 313 313 312 312 313 314 315 315 316 316 317 317 318 317 316 315 314 314 313 313 313 313 317 320 316 315 318 317 315 318 322 321 317 314 312 310 312 314 315 315 314 313 314 314 315 315 315 315 315 315 316 315 316 318 318 316 314 310 310 312 311 311 314 313 312 313 313
308 310 311 313 314 314 315 315 314 313 312 311 312 312 312 311 312 313 313 313 313 313 313 313 313 313 313 314 315 315 316 316 316 316 317 316 315 314 313 312 313 314 313 314 318 316 315 317 318 316 317 319 320 318 315 312 310 312 314 313 313 314 313 313 314 315 315 314 314 315 314 315 314 316 318 317 315 314 311 310 310 309 310 312 312 313 313 313
307 308 309 310 312 313 315 315 316 315 313 312 312 312 312 312 311 312 312 312 312 312 313 314 313 312 312 313 314 314 315 316 316 316 317 316 315 313 313 313 312 312 311 311 313 313 314 316 317 317 317 317 317 317 318 316 312 312 314 314 312 314 314 313 313 314 314 314 314 314 314 314 313 313 314 313 313 313 312 309 310 310 311 311 312 313 313 313
306 307 309 310 311 311 312 313 314 315 314 313 313 312 313 312 312 312 312 312 311 311 312 313 312 312 313 313 313 313 314 314 315 315 316 315 314 312 311 312 311 311 311 311 310 311 314 315 315 315 316 317 316 316 317 318 314 312 314 314 312 313 313 313 314 314 314 314 314 314 314 314 314 313 313 312 312 312 311 311 311 311 311 311 311 312 313 313
304 306 309 311 310 311 311 312 312 313 313 313 313 313 313 313 312 312 312 312 312 311 311 312 312 312 313 313 313 313 313 313 313 313 313 313 313 312 311 310 311 310 310 311 310 311 312 312 313 314 314 315 315 315 315 315 313 313 314 313 312 313 312 313 314 313 314 314 314 314 314 314 314 313 312 312 312 312 312 312 311 310 311 312 311 312 312 312
302 304 306 308 308 310 311 310 309 310 311 312 312 312 313 313 313 313 312 312 312 312 312 313 312 313 313 313 314 314 313 314 313 312 312 312 312 312 311 311 310 310 311 310 309 310 311 311 312 313 312 313 313 313 313 314 313 313 313 312 312 312 312 312 312 312 312 313 313 312 313 313 313 311 312 312 311 312 311 311 311 311 311 311 311 311 311 311
299 301 303 304 305 306 306 305 305 306 308 309 309 310 310 311 311 311 311 312 312 312 312 313 313 313 313 313 314 314 313 314 314 313 313 313 313 313 312 313 312 310 310 310 309 310 311 312 311 312 312 312 312 312 313 313 312 312 312 312 312 311 311 311 311 311 311 311 311 311 312 312 311 311 311 311 311 311 311 311 311 311 311 311 311 310 310 311
298 300 301 301 301 302 302 302 303 305 306 307 308 308 309 309 309 310 310 311 311 311 312 312 313 313 313 312 313 313 313 313 314 313 313 313 313 313 312 313 314 311 309 309 309 308 310 311 312 311 311 311 312 312 312 312 312 312 312 312 311 311 312 311 311 310 311 310 310 310 311 311 310 311 311 311 311 311 311 311 311 311 311 311 310 310 310 310
297 298 299 299 299 300 301 301 302 303 304 305 307 308 308 309 309 309 309 310 310 311 311 311 310 309 309 310 311 311 310 309 309 310 310 310 311 312 311 311 313 312 310 309 309 308 308 309 310 311 311 311 312 312 311 311 311 311 311 311 311 311 311 311 311 311 311 311 311 311 311 311 310 310 311 310 310 310 311 311 310 311 311 311 310 310 310 310
296 296 297 297 298 299 300 300 301 301 302 303 304 305 305 306 306 306 306 308 308 307 307 306 305 306 306 307 308 307 304 304 305 306 306 307 308 309 310 310 311 312 310 308 309 309 308 308 309 311 312 312 312 312 311 311 311 311 311 311 311 311 311 311 311 311 311 311 311 312 312 311 310 310 310 310 310 310 311 311 311 311 311 311 311 311 310 311
Wind_Speed
7 7 7 7 7 7 8 8 9 9 10 10 10 10 10 10 10 9 9 9 8 9 9 9 9 9 9 9 10 10 11 12 13 15 18 15 12 13 12 10 8 6 4 5 4 3 2 2 1 1 1 3 4 5 6 6 6 2 2 2 3 3 4 5 4 3 2 3 3 6 9 7 3 6 8 7 9 11 10 14 14 14 18 18 17 16 15 14
8 8 8 8 7 8 8 8 8 9 9 10 10 10 11 11 11 11 10 10 10 10 10 10 10 9 10 10 10 11 12 12 14 18 18 15 15 15 14 12 9 7 6 6 5 4 2 2 2 2 4 5 5 5 5 6 7 5 3 2 4 5 5 5 4 5 1 2 4 4 7 9 6 6 7 5 7 10 9 12 15 15 18 20 22 21 20 19
10 9 9 9 8 8 8 8 8 8 8 9 10 10 11 11 11 11 11 11 11 11 11 11 11 11 11 10 11 11 12 13 16 17 13 11 14 14 14 13 10 9 8 7 6 5 4 2 4 5 7 8 6 7 6 5 6 7 5 1 7 7 6 10 8 4 2 3 3 2 5 8 8 7 7 6 6 7 10 14 14 18 24 24 24 23 23 24
10 10 10 9 9 9 9 9 9 9 8 9 9 10 10 11 11 11 12 12 12 12 12 12 12 12 11 11 11 11 12 13 13 8 6 4 3 6 10 13 13 12 10 10 8 7 4 2 5 6 8 10 9 9 8 9 7 6 7 4 7 4 4 12 11 6 6 5 5 5 4 6 9 9 9 7 4 5 14 22 21 23 28 27 27 26 26 26
11 11 10 10 10 9 9 9 9 9 9 9 9 10 10 11 11 12 12 12 12 13 13 13 13 13 12 12 11 10 10 8 4 2 5 6 7 7 7 10 14 14 12 11 9 7 5 4 5 5 6 8 7 6 7 15 13 4 8 12 13 8 5 13 13 9 9 7 6 6 4 7 7 9 14 12 7 11 19 21 20 21 24 26 28 28 29 29
12 12 11 11 10 10 10 10 10 10 10 10 10 10 11 11 11 12 12 13 13 13 13 14 14 14 13 13 12 11 6 3 5 6 10 13 13 12 8 8 13 14 14 12 10 9 7 5 5 6 5 5 5 6 10 18 17 6 8 13 18 17 10 15 16 12 12 9 7 6 6 8 6 9 16 18 21 27 26 19 13 13 14 21 27 29 30 30
13 13 13 13 12 12 11 11 11 11 11 11 10 11 11 12 12 12 13 13 13 14 14 14 15 15 14 13 13 11 8 10 13 13 15 15 14 13 9 8 11 15 16 13 12 10 8 5 7 9 5 5 6 8 13 15 16 11 7 8 15 18 16 20 20 15 14 12 13 10 8 10 9 9 11 21 34 35 31 26 21 17 14 16 22 29 32 31
15 15 15 14 14 14 13 13 13 13 13 12 12 12 12 13 12 13 13 13 14 14 15 16 15 15 14 14 12 10 11 13 13 11 12 12 12 13 10 9 11 15 15 14 13 11 10 7 9 10 5 5 7 7 8 7 8 10 8 8 11 14 17 19 18 16 16 16 17 12 11 15 17 13 11 28 40 35 31 30 28 25 23 21 22 26 30 32
16 16 16 16 16 16 15 15 15 15 15 15 14 14 14 14 14 14 14 14 15 15 16 16 16 16 15 14 11 9 14 14 12 11 11 12 13 13 11 10 11 14 15 14 13 12 12 9 9 9 5 6 7 8 7 3 4 8 10 10 9 12 16 18 19 19 17 18 15 9 13 19 20 13 15 37 43 34 32 31 30 28 26 29 28 28 29 31
17 18 17 17 17 17 17 17 17 17 17 17 16 16 16 16 16 15 15 15 15 16 16 16 17 16 14 14 8 7 14 16 14 15 13 13 14 13 12 11 12 14 15 15 14 14 14 11 10 8 7 8 7 9 7 4 4 5 8 11 13 16 18 20 22 24 19 17 16 11 11 16 15 6 12 37 33 21 23 24 27 28 28 31 31 32 32 33
19 19 19 19 19 19 19 18 18 18 18 18 18 18 18 18 18 17 17 16 17 16 16 16 17 15 15 14 10 11 18 20 18 18 17 17 17 15 13 11 12 14 16 16 15 15 14 13 12 9 7 6 5 9 10 8 6 7 9 12 17 15 18 22 22 25 17 13 19 16 9 13 9 5 19 40 29 14 16 16 19 24 29 31 32 34 34 36
21 21 21 21 21 21 21 21 21 20 20 20 20 20 19 20 20 20 19 19 18 18 18 17 16 15 14 14 18 20 22 21 19 19 18 18 19 18 15 13 13 13 16 17 16 15 14 14 14 12 9 5 3 5 6 7 7 10 6 6 14 9 12 23 21 22 15 8 15 11 4 11 7 13 33 44 35 25 22 20 21 22 26 29 32 35 36 37
22 22 22 23 23 23 23 24 24 24 24 23 23 22 21 22 22 21 21 21 20 20 19 18 17 16 12 15 24 24 22 21 20 19 19 20 21 20 17 15 14 14 16 17 17 16 15 14 14 15 15 10 4 4 6 8 8 9 3 2 9 6 8 19 16 16 13 8 12 12 1 11 9 21 36 36 34 31 26 26 29 27 27 28 30 34 36 37
22 22 22 23 23 24 24 24 25 25 26 26 25 25 24 24 24 24 23 22 22 22 20 18 17 14 12 17 25 24 22 22 22 20 20 21 21 21 19 16 15 15 16 16 17 16 15 13 13 13 14 13 10 8 7 8 5 4 2 1 4 3 7 12 7 5 5 6 16 14 3 12 12 20 26 22 24 26 25 29 31 31 32 31 32 33 35 37
21 22 22 23 24 24 25 24 25 25 26 26 26 25 25 25 26 26 25 24 24 23 22 18 16 12 11 19 25 23 21 21 21 19 19 20 21 20 18 15 15 16 15 15 16 16 15 12 12 10 9 12 10 5 4 4 3 1 1 4 3 4 7 11 8 8 7 6 15 13 4 11 13 22 27 22 22 23 24 29 30 31 34 34 35 35 36 37
20 21 22 23 24 24 25 25 25 25 26 26 25 24 24 24 25 25 24 24 24 23 21 16 14 11 8 14 20 20 20 21 20 18 18 19 19 18 16 13 13 14 14 14 14 14 13 11 10 9 7 6 3 3 2 4 5 1 4 6 5 5 5 7 8 8 10 6 9 10 6 7 9 15 21 17 19 23 22 26 30 32 34 34 36 37 37 37
20 20 21 22 23 24 25 25 26 26 26 26 26 26 24 24 25 24 23 22 21 21 18 12 9 9 10 14 19 23 24 23 20 17 16 16 15 15 14 13 12 12 11 11 12 11 10 10 7 6 6 4 3 5 2 4 6 4 3 5 6 7 5 5 7 3 8 8 8 11 9 11 11 11 14 12 14 17 20 25 30 33 35 35 35 37 38 40
19 20 21 21 22 23 24 25 26 26 26 26 26 27 26 25 25 24 22 20 18 14 12 10 7 2 10 15 16 19 19 16 14 12 13 13 12 12 12 12 9 8 7 7 10 10 9 8 6 2 3 3 4 5 4 8 8 5 5 4 5 7 6 9 8 2 7 7 7 8 9 16 17 14 21 27 22 15 18 24 28 32 34 35 36 37 39 42
19 20 20 21 22 23 23 25 25 26 27 26 26 26 26 24 22 20 18 15 12 7 6 11 13 5 8 10 10 11 12 11 10 10 13 13 11 12 13 12 9 10 7 3 5 10 11 4 3 3 4 7 7 8 12 13 9 8 8 6 6 7 7 11 10 6 9 6 6 10 12 16 18 16 20 32 31 22 21 24 27 30 33 35 37 39 41 43
18 19 19 19 20 21 22 23 23 24 25 25 25 24 21 15 10 10 10 14 16 15 14 15 17 16 14 13 13 13 14 13 13 15 15 13 11 11 15 14 9 9 7 5 4 8 12 6 3 7 10 11 10 12 16 14 9 9 9 8 9 8 10 12 11 7 8 6 7 13 15 15 18 18 17 26 27 20 20 22 26 31 33 37 38 41 44 46
16 17 17 17 17 17 19 19 19 20 21 21 21 18 12 7 5 7 9 14 21 24 25 24 21 24 23 19 18 17 17 15 18 20 16 13 12 10 14 14 7 6 8 6 3 4 9 7 8 14 15 12 10 12 13 11 10 11 10 9 9 8 12 13 10 7 6 5 8 11 14 16 17 17 16 19 15 15 21 20 24 31 34 37 39 43 47 48
14 14 15 14 14 15 16 17 17 17 16 16 15 12 8 8 9 12 11 13 22 27 28 28 27 29 29 26 25 23 18 16 20 22 19 17 18 13 12 12 7 5 6 5 3 4 5 7 12 16 13 9 8 8 9 10 11 10 8 7 8 6 10 11 8 6 4 5 7 8 11 13 14 16 15 14 12 18 30 27 28 33 31 33 38 43 47 46
14 14 14 13 12 13 15 16 15 13 13 12 10 8 7 9 10 12 11 9 16 24 27 30 31 33 32 30 30 26 21 21 22 24 25 23 21 19 14 11 8 4 6 8 8 7 6 7 13 15 10 10 11 9 7 9 8 8 8 7 8 7 7 9 6 3 3 4 5 6 9 9 9 12 13 17 21 24 32 34 35 37 34 37 43 47 48 45
15 15 15 14 13 14 15 15 11 11 13 11 8 7 7 8 8 9 10 8 9 14 23 29 29 33 35 31 29 30 30 29 24 22 27 28 22 16 13 11 7 4 7 12 13 14 12 7 11 14 11 12 13 11 8 7 8 10 10 8 10 10 11 12 7 4 3 4 4 4 9 8 8 14 14 16 20 21 27 31 33 39 41 43 46 48 50 49
14 15 15 15 14 14 15 13 10 12 12 9 7 6 7 6 5 7 9 6 5 6 13 18 19 25 30 28 28 28 24 23 24 23 25 30 26 13 6 9 8 6 10 12 11 13 12 8 10 10 9 12 12 10 8 7 9 11 8 11 14 14 13 13 9 6 5 6 4 2 7 8 8 14 15 10 9 11 16 20 24 34 41 41 43 46 48 48
14 14 14 15 15 15 14 11 11 14 11 7 7 6 6 5 4 6 7 3 4 3 3 7 9 11 14 19 25 21 9 12 22 26 23 25 29 19 5 6 7 6 8 7 6 5 7 10 12 10 10 12 10 8 8 11 9 10 6 11 14 12 11 11 7 4 3 5 4 3 3 8 5 8 10 7 7 10 11 11 16 25 32 36 40 43 44 42
15 15 14 15 16 16 14 12 12 13 10 8 9 6 5 4 2 5 5 4 5 3 5 6 6 6 6 11 22 18 3 5 11 17 21 22 26 22 10 5 5 5 6 4 4 4 5 7 9 12 12 9 8 9 8 11 8 7 4 8 10 9 9 8 6 5 4 4 4 2 3 7 11 7 9 11 11 12 12 11 12 18 27 35 40 40 40 39
16 15 14 14 16 17 16 14 11 11 11 11 10 5 3 1 0 3 3 4 4 5 4 5 6 6 6 11 22 16 1 2 3 6 18 22 21 17 11 9 6 4 5 5 6 5 2 4 8 11 9 7 8 8 8 11 7 6 2 4 5 5 5 3 3 5 2 4 4 4 5 4 14 8 8 11 11 11 13 14 13 15 25 36 40 39 38 38
17 16 15 14 16 17 17 16 13 11 11 11 9 4 2 4 1 4 2 4 2 3 2 4 5 5 5 9 15 12 1 3 1 4 12 16 18 12 4 6 5 3 4 5 8 5 0 3 5 7 6 7 6 2 5 9 7 3 4 3 4 3 2 4 1 1 2 4 6 7 7 3 14 11 5 5 7 10 11 12 13 15 25 36 38 37 37 36
19 18 17 15 17 18 18 18 15 11 9 10 8 3 5 4 3 3 3 5 2 0 2 4 4 4 7 6 5 9 5 1 2 5 8 8 12 8 1 1 1 2 5 5 7 8 3 2 2 4 6 5 4 3 1 3 3 2 5 4 6 5 5 4 1 4 2 8 6 10 12 8 10 9 4 5 5 11 10 8 10 12 21 32 36 36 35 34
20 19 18 17 18 19 18 18 16 12 8 7 5 4 7 3 3 2 7 3 1 2 2 2 2 3 6 4 2 5 4 1 3 6 5 2 3 3 1 1 1 3 3 5 7 9 5 1 2 4 5 5 6 3 2 3 2 3 4 4 4 5 4 5 4 4 2 9 6 13 15 12 10 6 2 2 3 9 10 9 10 10 16 29 35 35 32 31
22 22 21 21 21 21 20 19 17 13 8 3 1 7 6 1 1 6 5 3 1 3 2 2 2 3 4 2 1 3 3 2 4 5 4 3 2 3 3 4 4 2 3 5 4 5 6 7 6 3 4 8 6 2 3 5 2 4 4 4 1 4 3 3 3 0 4 8 6 10 10 8 13 7 3 7 5 6 9 9 13 14 17 28 33 31 30 30
24 24 25 26 25 25 24 21 19 15 10 5 7 7 4 1 5 6 3 1 3 3 2 2 3 4 4 1 2 4 2 2 4 4 3 4 3 3 4 5 5 2 4 4 2 3 4 6 5 4 3 9 10 5 4 3 4 7 5 6 5 3 1 3 4 3 5 8 6 6 6 5 8 4 8 14 13 13 14 16 23 23 23 31 32 28 29 29
26 24 26 27 26 25 25 24 22 17 11 9 10 6 3 5 6 1 3 5 5 2 2 2 2 3 3 3 4 4 2 3 4 5 2 3 2 3 4 6 7 3 1 1 2 2 3 8 6 8 3 10 14 13 11 4 4 7 6 6 4 4 4 4 5 6 6 7 6 3 4 4 3 3 9 12 13 15 18 24 30 30 31 32 31 30 29 26
23 23 24 24 24 23 24 26 25 19 14 12 9 4 4 8 5 2 3 5 3 3 6 4 2 3 2 3 4 4 5 4 2 5 4 4 3 4 4 5 9 6 2 2 3 4 5 10 7 6 3 10 12 11 10 6 1 3 5 5 3 5 6 5 5 5 2 4 6 3 4 6 4 6 8 7 9 9 13 21 22 25 31 30 30 35 30 22
19 19 19 21 22 21 21 24 24 20 17 13 6 3 7 5 3 3 1 1 2 3 7 7 1 2 3 3 3 5 6 5 2 3 2 4 4 5 5 4 9 11 8 6 3 3 5 7 3 2 2 4 4 3 4 5 2 2 4 4 5 4 6 4 6 3 1 5 8 3 5 6 5 7 8 7 10 8 9 13 12 19 29 27 28 35 29 20
18 19 20 22 21 18 18 18 20 23 20 13 5 5 6 4 4 4 2 2 1 2 4 3 2 2 3 3 2 4 4 4 3 3 3 3 2 5 6 5 9 14 15 12 5 4 7 6 3 4 2 3 0 2 1 1 3 5 3 6 3 3 2 3 1 3 2 6 7 5 8 8 7 8 4 1 5 8 9 10 10 17 24 22 28 34 28 23
16 18 22 26 24 21 19 16 18 24 19 10 6 8 5 4 6 6 6 4 1 2 3 1 3 3 2 2 4 4 4 3 1 2 3 3 3 5 5 5 8 14 22 20 7 4 5 6 5 2 1 3 3 2 1 3 3 5 3 2 3 1 2 2 3 3 5 8 8 11 14 10 7 8 6 4 7 10 12 13 13 15 15 17 26 31 26 23
12 12 17 21 19 17 18 18 22 25 15 5 6 7 5 6 8 9 9 4 1 2 2 4 4 1 2 2 3 4 4 4 2 3 3 2 4 3 2 4 5 10 20 20 9 4 3 5 5 1 1 3 3 1 3 2 1 2 2 3 1 3 4 3 3 3 4 8 9 12 14 11 7 6 6 9 10 11 12 12 12 12 14 20 27 27 25 23
8 7 11 14 9 6 12 19 24 20 8 3 6 6 5 5 7 12 16 11 3 3 4 4 5 4 3 5 6 4 4 5 3 3 3 2 6 8 4 1 2 5 9 9 6 4 1 4 6 1 2 2 2 3 7 7 4 1 1 3 2 2 1 1 2 2 4 8 7 8 11 11 7 3 5 9 8 9 11 11 10 10 16 25 29 31 33 31
8 5 10 15 8 7 16 20 16 9 3 3 5 6 7 5 5 9 16 17 11 8 7 5 5 5 6 7 9 7 5 5 6 5 4 5 7 7 4 2 2 2 2 1 2 3 1 3 6 1 1 5 6 6 8 11 10 7 6 6 5 6 3 5 7 5 4 6 6 8 9 11 8 1 3 7 6 7 9 9 10 11 18 27 32 37 40 39
10 6 9 13 9 13 22 15 6 6 4 5 8 7 6 7 7 8 11 14 13 10 7 5 6 7 6 7 10 9 5 5 8 8 7 10 13 10 10 13 7 2 2 2 4 5 4 3 4 5 4 7 8 5 6 9 7 4 4 6 6 6 6 8 10 7 5 5 6 8 9 12 10 2 2 6 6 7 9 10 9 10 17 27 35 39 37 36
11 11 10 12 13 18 19 8 5 8 4 6 12 10 9 8 6 7 8 10 10 7 5 5 8 10 10 9 10 9 7 7 9 12 11 10 13 17 23 28 19 3 2 3 4 4 4 3 5 7 4 4 7 6 4 3 2 1 4 6 8 9 10 11 8 5 7 7 7 9 9 10 10 6 4 6 6 8 12 15 13 14 23 31 36 34 30 30
11 14 14 14 19 23 16 4 4 7 5 7 8 8 11 10 7 10 10 8 8 6 5 7 10 12 11 10 10 11 10 9 10 14 13 8 12 22 28 32 27 10 2 3 3 2 3 3 4 6 5 4 6 8 8 5 2 3 6 8 11 13 12 8 5 3 7 11 13 11 10 9 11 9 5 6 6 5 8 12 12 12 18 24 26 25 25 26
7 9 13 19 27 29 19 11 10 7 6 10 11 10 11 7 11 20 19 14 13 9 6 6 7 9 9 8 10 12 13 11 9 10 10 7 10 18 25 29 27 16 12 12 7 2 3 5 4 5 8 8 8 9 8 5 3 3 6 10 13 14 13 9 5 5 8 13 14 12 11 11 10 12 14 15 13 10 11 15 17 16 17 17 16 18 20 22
4 4 7 13 25 29 23 19 18 10 7 9 8 9 12 10 11 20 21 15 16 16 11 6 4 4 6 8 11 12 13 13 11 7 7 8 7 8 15 23 24 22 22 18 13 6 2 5 8 11 13 12 13 14 8 2 3 4 5 9 10 10 12 10 6 8 10 10 11 12 15 15 11 13 20 22 21 19 18 17 17 20 25 27 27 27 28 30
4 4 3 4 12 20 21 20 18 12 10 11 5 4 14 16 10 12 15 14 16 17 12 8 8 8 7 10 12 13 13 14 14 13 12 12 10 8 11 14 17 22 21 15 16 10 2 6 14 18 21 20 20 22 17 10 10 11 9 10 10 8 9 9 10 13 11 8 11 14 16 15 13 15 22 26 26 25 20 15 16 21 26 30 32 31 32 37
5 6 6 4 2 6 9 10 10 8 8 10 5 3 10 14 10 8 10 12 15 14 8 7 14 16 16 16 13 10 12 12 13 15 14 13 12 12 11 10 13 20 16 10 13 10 3 9 16 18 22 24 23 25 23 18 16 15 14 15 16 14 11 12 16 18 15 12 14 15 16 17 16 17 22 25 25 24 21 21 24 26 28 32 33 28 29 36
8 8 9 8 4 5 7 9 9 8 7 6 3 3 5 8 9 7 4 5 7 9 10 11 14 18 22 23 17 12 13 13 14 15 13 14 15 12 11 11 13 16 13 7 8 8 5 9 14 18 21 21 22 22 21 20 18 16 17 19 19 19 18 19 21 21 20 20 19 20 23 23 20 19 22 25 28 29 27 27 29 31 36 39 35 31 33 38
8 7 7 8 5 8 14 12 8 6 5 5 5 5 6 8 11 9 5 4 4 3 8 14 14 14 15 16 15 15 15 14 15 14 9 9 10 8 7 8 7 7 8 7 6 6 7 10 11 13 13 13 17 19 18 20 20 19 21 20 20 22 23 24 23 19 18 21 23 25 26 23 20 22 24 26 29 29 27 27 31 37 42 39 33 34 36 36
11 10 9 8 4 6 10 8 5 4 4 5 5 4 6 8 9 9 8 9 11 8 6 10 12 10 10 12 11 12 13 13 13 14 13 10 9 7 6 5 5 4 4 6 5 4 6 9 8 7 8 10 14 18 21 22 22 21 21 21 22 24 23 22 20 18 19 22 25 25 21 17 18 21 21 20 22 23 22 25 30 37 43 37 31 31 30 30
11 12 12 8 5 6 7 5 5 5 6 7 7 6 7 7 8 9 7 6 7 10 10 10 10 8 8 8 8 12 19 20 20 22 22 21 20 17 16 14 12 9 5 3 4 4 5 5 6 6 8 9 13 18 20 18 15 14 16 21 26 26 24 23 21 22 24 22 20 18 17 17 17 16 15 17 19 20 22 26 31 37 40 36 30 28 28 30
Wind_Direction
332 336 339 341 345 346 348 352 354 355 357 357 360 2 3 5 6 6 5 3 356 348 342 336 329 324 320 316 313 309 303 294 290 281 272 271 270 273 277 281 282 279 292 299 304 309 305 33 356 259 237 263 262 253 238 230 224 195 111 152 245 230 210 211 212 243 195 222 236 208 209 201 235 229 218 240 237 233 222 216 218 216 221 232 239 240 237 229
323 327 328 332 334 335 339 342 346 350 351 352 354 356 357 360 1 2 3 3 2 357 352 345 337 327 320 315 313 312 307 302 294 283 280 278 268 266 270 276 282 272 270 279 287 292 297 22 340 286 233 248 263 248 230 215 203 189 154 167 234 214 220 249 258 249 224 222 216 221 222 213 241 236 210 234 241 229 231 232 226 226 227 232 238 238 239 235
317 320 322 325 325 329 331 332 339 342 347 348 350 352 354 356 356 360 360 1 2 360 357 352 348 339 329 320 314 313 310 307 299 296 303 288 267 262 262 264 268 267 264 267 274 288 309 323 291 275 234 242 253 232 217 199 201 206 191 208 243 226 251 281 293 274 266 261 240 305 250 223 242 233 200 218 251 231 225 233 221 222 230 231 235 235 235 236
312 314 316 319 321 323 324 327 332 334 341 343 346 349 350 353 354 356 356 358 359 357 357 354 352 347 339 330 321 315 317 316 304 317 5 359 302 274 264 258 256 259 259 258 265 279 308 295 270 267 234 242 249 234 224 209 209 197 181 204 239 232 278 279 293 296 277 287 280 289 281 260 252 232 217 213 253 255 235 240 233 234 239 232 231 234 235 237
307 309 311 313 315 317 320 322 324 327 333 335 340 341 343 348 348 350 352 353 353 353 353 351 350 347 340 332 324 317 325 336 322 30 24 0 356 330 296 263 250 251 252 251 258 261 269 266 249 254 239 246 248 232 231 220 213 208 215 225 241 252 282 278 286 285 272 283 280 277 275 273 260 235 233 215 215 247 248 253 252 252 253 243 239 239 238 238
303 305 306 308 309 312 313 314 317 320 323 326 331 332 335 338 339 343 343 344 345 346 345 345 346 345 339 331 324 317 310 300 298 303 308 312 317 315 308 270 248 243 246 244 248 247 252 255 230 239 235 246 245 225 249 235 215 223 252 236 245 250 256 274 279 276 272 269 264 267 262 265 263 254 247 227 233 250 256 260 261 264 265 255 249 242 238 239
301 302 303 304 305 306 306 309 310 311 313 316 320 322 325 325 329 332 332 335 334 335 336 336 339 339 338 331 324 312 273 276 300 301 300 307 308 309 301 269 246 237 239 238 240 238 244 240 226 241 232 244 250 235 263 255 215 214 259 254 256 257 259 274 280 275 267 264 264 265 265 265 250 256 260 245 249 255 259 258 255 259 266 260 248 241 242 244
298 299 300 301 302 302 301 303 303 304 306 306 310 312 313 314 317 319 321 323 322 326 326 327 331 331 334 327 320 304 275 291 315 313 307 309 305 307 299 268 244 237 237 236 239 234 235 231 234 247 239 246 254 253 280 279 216 213 248 265 269 271 272 280 288 280 269 268 270 264 259 257 251 259 270 260 261 261 259 260 257 255 257 256 249 244 244 245
297 297 298 299 299 299 299 300 300 300 300 300 303 303 305 306 306 309 310 312 313 316 317 320 322 322 325 318 310 295 287 303 321 317 314 310 302 303 297 272 248 240 235 235 236 228 227 224 233 241 246 264 268 276 290 301 233 218 238 267 287 287 284 287 289 284 276 267 263 253 256 258 259 270 273 264 265 268 264 261 260 255 250 250 249 247 246 246
297 296 297 297 297 296 296 296 297 298 298 298 298 299 301 300 300 302 302 304 305 306 309 311 314 316 315 307 294 274 291 304 311 310 308 302 300 299 295 280 256 245 239 237 233 228 229 223 229 241 262 275 269 273 278 263 250 248 271 292 291 289 293 289 284 282 278 268 252 232 253 265 262 257 265 267 269 271 266 260 258 254 249 247 245 247 248 249
296 296 297 297 297 296 295 295 295 295 295 295 296 297 299 298 299 298 298 300 299 301 303 304 308 308 305 297 262 254 290 300 301 302 298 294 294 291 290 282 264 252 243 241 236 234 234 229 231 244 263 269 266 283 284 266 265 293 316 314 290 294 302 287 279 277 273 268 248 225 252 277 262 206 246 262 266 265 264 261 257 249 248 248 245 247 248 250
296 297 297 297 297 297 296 296 295 295 294 293 294 295 296 297 297 297 298 299 299 299 299 301 303 301 300 283 263 272 292 295 294 293 289 290 287 283 284 277 266 254 246 245 240 236 233 232 234 237 246 254 283 308 293 278 292 301 319 314 289 315 306 278 274 270 255 253 240 202 281 281 234 224 245 258 263 260 261 261 258 251 248 247 246 247 248 251
299 299 300 299 298 298 298 297 297 296 295 293 293 293 294 294 294 295 295 296 298 297 298 299 298 297 288 270 275 286 292 289 288 285 283 284 281 278 279 274 265 253 247 245 241 236 231 233 236 239 247 252 263 269 279 300 307 295 289 240 285 334 300 270 269 259 241 234 207 157 280 271 243 242 248 262 266 260 257 255 255 252 250 248 247 247 248 251
302 302 303 302 301 301 300 300 299 298 296 295 295 295 294 294 293 292 292 294 294 294 295 295 293 289 267 269 286 289 285 283 279 277 278 277 275 275 276 272 263 253 247 244 241 237 231 231 235 244 249 246 253 268 290 309 293 275 298 243 265 299 278 270 264 212 214 216 181 156 239 258 263 262 257 265 262 255 250 251 253 249 249 249 248 248 249 251
301 302 303 303 303 303 302 303 303 301 300 298 298 299 298 296 294 292 291 290 289 290 291 289 286 277 259 274 286 285 281 277 273 273 272 270 271 273 273 267 257 249 245 243 240 238 237 233 232 237 246 250 254 268 315 325 286 206 245 281 261 212 259 281 272 201 205 208 168 156 236 256 263 270 270 267 256 248 241 248 254 250 249 247 248 249 249 254
297 298 299 300 301 302 302 302 303 302 301 301 302 303 303 301 298 296 294 289 286 285 284 282 276 264 255 279 284 281 277 271 271 272 266 268 270 268 266 256 246 241 239 238 236 237 236 231 231 234 239 248 213 152 14 335 304 293 197 248 258 228 258 290 287 228 196 173 172 188 225 257 261 270 273 266 253 247 234 243 252 252 252 247 247 248 248 255
296 297 298 300 300 300 301 301 302 301 300 301 301 302 303 304 301 300 297 289 281 276 272 266 262 257 249 269 276 274 274 271 271 268 263 268 265 262 259 247 238 234 233 232 233 230 222 216 212 233 241 227 151 122 70 284 268 286 219 235 251 241 253 266 293 284 164 155 201 219 230 251 256 269 274 263 258 249 228 236 246 249 253 249 248 248 249 254
299 300 301 302 302 302 302 302 301 300 300 300 301 302 303 304 302 299 293 282 272 266 263 230 196 238 255 255 262 269 276 274 266 259 257 259 254 252 249 242 233 221 216 222 230 212 203 211 184 206 278 211 177 142 175 235 230 231 222 226 252 247 248 252 267 229 158 174 208 218 238 251 257 266 268 264 264 253 232 235 243 248 252 253 252 250 253 256
304 305 306 306 306 306 306 304 303 302 300 298 299 300 302 303 300 294 285 269 245 233 252 211 190 207 258 250 249 260 268 262 252 245 248 251 246 239 229 227 215 198 188 188 224 197 184 189 141 179 252 219 203 182 204 228 221 224 235 232 243 249 253 254 260 218 175 195 210 215 234 243 252 256 257 261 261 256 247 241 243 247 251 255 255 254 256 256
307 308 309 310 311 313 311 309 308 307 303 300 299 301 305 308 305 294 273 251 244 251 261 238 220 235 253 257 253 253 251 248 248 248 252 250 237 225 216 211 199 198 197 162 184 192 179 178 168 198 227 223 210 204 218 233 234 244 254 255 251 253 262 259 265 245 183 192 217 218 234 239 247 252 248 255 260 261 252 243 244 247 249 252 254 256 258 258
312 312 313 315 318 320 319 318 318 316 313 309 308 310 310 303 292 289 281 268 266 266 264 259 250 249 254 257 255 257 254 251 253 248 248 241 221 211 208 200 182 206 213 182 185 207 181 190 211 213 227 229 215 211 223 236 240 249 250 259 260 251 263 259 258 257 188 196 241 229 243 249 246 254 254 251 253 255 251 244 245 247 249 252 255 258 260 261
320 319 321 323 328 330 328 330 330 325 322 320 317 317 305 289 276 275 286 284 275 271 265 264 259 253 254 254 253 257 252 247 249 238 233 227 212 206 197 184 191 204 182 176 235 258 212 221 224 221 230 241 237 219 221 232 232 243 246 256 263 252 272 266 247 256 192 192 248 242 247 253 251 255 258 251 238 244 250 248 249 251 251 254 257 260 261 263
324 327 328 331 340 342 340 340 339 337 337 334 330 327 308 291 280 280 286 279 278 275 266 261 256 250 248 245 244 242 232 233 240 233 231 225 208 205 198 183 200 184 143 183 209 229 233 230 224 223 227 237 247 235 227 247 242 239 242 249 259 251 269 268 245 252 224 208 249 260 259 256 260 266 261 251 244 244 250 252 254 256 256 256 259 261 263 263
325 328 329 334 346 349 349 348 349 353 347 343 345 341 327 300 284 302 302 274 274 275 267 264 259 251 247 243 239 231 228 234 236 232 232 222 201 199 209 199 193 181 193 203 208 228 243 229 206 211 217 226 242 240 225 248 256 244 231 228 249 249 246 253 267 298 288 280 279 284 287 270 231 249 257 250 247 247 250 253 256 257 257 258 259 261 262 262
321 325 327 332 343 350 351 352 355 354 346 340 341 333 333 315 281 317 323 292 270 266 268 262 253 249 245 242 235 226 230 239 239 239 234 221 207 198 209 197 189 212 217 213 221 240 251 236 204 202 217 223 234 241 212 209 252 258 224 211 235 244 245 253 278 317 317 296 275 201 282 277 201 222 247 251 251 249 244 246 249 253 255 257 258 259 261 262
314 319 325 328 336 345 348 352 353 352 352 342 338 333 325 310 282 317 334 317 273 246 211 212 220 234 231 229 220 212 242 257 241 240 232 224 217 209 205 181 192 226 205 203 239 250 242 224 204 201 216 217 225 244 213 196 237 269 228 207 225 236 248 257 267 284 263 263 271 130 228 277 245 213 236 239 240 249 245 238 242 247 251 254 256 257 260 262
309 314 324 326 331 335 336 344 348 352 357 346 338 330 307 295 294 336 354 320 273 184 159 187 188 190 201 206 193 185 241 249 223 227 214 213 213 207 214 197 186 219 166 154 259 244 212 207 198 211 220 215 222 242 215 184 214 266 233 195 211 226 242 246 232 226 234 266 289 122 137 282 280 232 207 214 221 241 249 245 246 244 246 252 253 254 259 263
305 309 317 321 324 324 324 329 339 352 354 346 339 315 284 199 166 35 53 289 272 130 142 198 180 199 206 182 183 183 83 108 153 203 195 198 199 195 219 216 184 200 165 165 234 242 179 184 203 207 208 214 222 230 192 169 205 251 190 167 179 200 218 184 191 225 280 336 281 196 135 279 280 247 188 208 215 229 244 242 244 239 240 248 250 251 258 265
298 301 307 312 312 312 313 315 322 339 342 345 338 298 180 157 150 50 99 250 285 104 141 181 183 215 189 164 192 209 297 62 75 186 178 189 195 186 217 222 195 249 246 214 234 261 228 181 193 169 179 218 218 213 170 176 220 229 118 91 73 70 53 81 140 167 41 309 251 193 154 210 276 270 179 176 202 215 232 236 238 234 234 242 246 250 258 264
289 294 299 301 300 301 304 304 307 318 330 342 331 247 157 150 98 60 232 247 319 302 143 163 202 186 146 140 219 233 225 346 49 144 165 186 202 198 101 89 152 254 280 279 257 258 246 112 112 162 191 198 145 98 103 167 220 115 93 55 30 13 22 47 14 73 50 276 230 182 179 186 269 286 157 159 199 200 209 224 240 242 236 239 244 250 257 260
283 286 286 284 285 288 290 293 299 305 311 337 334 184 161 131 82 156 231 251 349 249 129 170 227 130 149 157 224 224 207 209 115 143 174 184 202 207 120 89 79 56 327 298 275 264 251 202 216 204 182 140 108 98 7 15 59 94 92 76 24 329 8 25 355 58 222 264 214 182 187 187 234 274 136 219 232 191 201 209 223 237 237 239 242 247 254 256
275 276 278 278 277 275 275 280 292 293 288 318 156 171 163 109 228 218 239 6 356 224 162 191 182 140 200 247 300 204 174 194 177 160 176 165 164 201 203 205 167 78 294 254 272 288 258 231 205 178 183 171 144 102 348 346 36 108 106 108 58 298 342 356 306 205 224 253 229 194 186 202 239 253 234 270 277 207 207 205 214 222 231 238 237 240 253 256
269 269 271 273 271 269 271 276 280 275 270 244 179 163 129 177 232 225 215 264 246 212 138 168 169 152 155 99 274 213 182 224 188 171 182 154 171 243 263 242 189 196 255 222 287 308 285 275 186 149 253 190 165 173 233 272 184 167 148 148 178 212 245 267 254 263 262 263 253 202 178 239 275 274 220 234 241 224 210 210 220 221 228 237 231 233 255 258
268 267 267 267 268 268 268 270 269 264 252 212 171 138 128 212 241 300 151 215 254 302 2 52 117 160 150 187 230 188 182 254 177 162 187 139 157 241 252 244 220 222 241 203 283 196 250 292 193 162 220 182 177 206 210 168 152 181 152 143 177 176 185 225 241 256 276 287 275 189 163 223 274 269 217 218 237 234 217 217 222 223 230 238 229 230 252 256
271 269 265 263 263 264 263 260 259 254 230 193 155 133 199 214 242 279 221 244 298 336 311 334 94 179 250 257 251 205 206 251 166 147 178 171 181 209 201 212 207 193 142 203 255 179 220 272 222 167 148 160 179 219 198 127 81 213 124 118 210 198 194 232 265 249 244 310 285 207 202 233 234 259 244 235 260 252 222 221 223 225 232 237 232 233 244 249
274 270 268 264 260 261 261 257 256 248 219 181 141 189 215 223 231 205 221 295 47 9 327 329 32 188 266 282 270 240 216 230 197 141 200 207 197 207 203 202 196 190 182 192 231 210 231 276 247 138 33 151 178 245 176 153 203 189 121 180 213 167 166 222 286 303 93 275 275 222 234 279 307 278 251 234 248 246 230 227 223 227 231 233 234 235 239 238
269 268 269 266 265 269 266 259 255 239 207 172 162 214 223 255 237 221 291 8 64 24 23 353 300 259 268 272 275 260 237 236 205 160 203 224 224 209 207 222 197 190 200 208 230 246 237 272 257 175 236 262 37 46 13 351 129 129 174 220 204 77 107 159 235 326 312 259 269 262 260 280 297 281 292 349 260 250 244 236 223 228 229 229 234 235 234 230
270 270 266 265 266 265 261 262 247 222 194 166 205 220 223 237 213 217 254 280 332 47 90 152 267 309 327 319 333 325 301 280 218 185 221 233 234 191 172 224 208 194 210 215 227 273 237 258 267 179 204 303 18 82 310 347 98 135 204 233 107 147 238 157 166 231 252 252 268 277 277 275 255 260 287 282 244 232 231 230 227 230 230 231 235 236 233 226
274 273 268 268 263 252 252 250 225 201 179 164 217 217 226 238 236 231 233 240 98 137 194 194 200 284 347 275 311 344 328 305 342 346 306 254 256 235 164 238 238 214 218 213 214 251 226 237 258 22 7 312 9 121 201 252 344 69 5 341 35 179 187 183 178 168 227 249 265 276 284 280 246 237 259 246 230 222 222 225 229 229 232 235 235 236 238 232
266 260 262 263 248 220 229 220 200 183 168 203 208 216 236 244 258 244 233 233 201 188 232 199 181 213 247 245 254 269 285 284 295 317 298 286 304 308 303 273 331 289 244 217 220 248 243 250 251 338 360 265 230 197 178 185 204 186 233 262 273 237 181 251 242 161 220 244 253 260 271 276 260 219 240 243 231 224 216 216 229 228 231 239 237 235 237 238
249 248 259 255 244 199 195 189 180 177 196 217 207 228 235 234 261 244 232 229 224 230 239 215 199 217 222 237 248 242 234 253 251 240 238 249 266 284 285 200 122 3 325 122 208 244 170 237 245 253 279 240 244 228 192 194 192 178 195 207 210 218 232 270 255 219 218 238 242 249 257 267 270 221 228 241 228 227 215 209 228 224 227 239 239 235 234 234
234 239 257 250 238 196 184 176 183 202 191 205 219 220 206 215 243 248 231 216 213 228 236 222 225 228 224 232 241 243 233 236 240 230 223 233 237 238 244 243 237 51 37 202 207 209 171 175 244 248 229 240 257 249 211 219 207 171 203 206 202 206 205 237 245 236 239 236 235 250 251 257 266 277 250 245 220 222 219 209 221 238 245 246 242 240 238 234
225 237 253 254 245 210 189 180 218 207 199 229 226 217 200 198 218 240 232 207 201 210 210 212 219 220 224 224 224 231 228 221 224 227 234 238 238 239 241 245 252 293 38 253 240 201 170 164 232 249 268 293 296 298 276 234 156 199 254 216 209 220 215 224 237 237 250 244 234 250 251 254 263 261 274 276 245 229 224 214 217 238 246 242 239 242 244 239
237 247 249 243 227 208 195 194 221 215 228 237 236 227 216 211 215 233 234 208 194 192 205 222 219 219 223 216 213 216 213 217 221 224 231 230 234 241 240 242 249 249 180 228 248 217 213 204 210 234 261 289 303 298 282 263 182 216 243 225 222 229 225 231 243 225 244 243 238 249 253 249 256 260 283 306 291 270 255 250 255 259 252 243 239 241 242 239
252 255 246 230 212 204 206 214 219 229 227 228 241 237 228 230 224 230 239 234 218 203 202 229 223 222 223 214 225 227 215 222 231 221 221 219 232 242 239 238 242 240 231 223 206 184 234 220 203 222 236 235 235 241 244 242 221 214 238 234 227 221 214 219 234 228 234 236 233 242 251 250 263 282 288 288 283 281 281 283 291 298 295 289 275 260 255 255
261 251 241 225 212 215 230 234 228 235 228 227 241 232 232 244 235 234 239 242 236 225 224 245 236 220 217 211 230 241 229 230 234 226 225 228 235 240 230 229 232 237 240 222 194 181 210 212 216 223 228 232 234 236 234 213 200 212 235 237 230 222 218 217 225 232 236 241 235 238 248 254 265 280 281 280 278 274 269 270 276 278 280 283 282 277 274 271
259 251 235 215 212 221 237 241 237 236 229 229 231 210 229 237 241 236 224 223 231 226 226 240 223 217 225 219 228 239 234 232 232 235 243 239 242 254 234 224 226 234 236 211 187 187 181 216 219 224 229 231 236 242 247 251 245 241 245 249 247 238 222 217 228 234 235 246 247 240 245 253 253 254 263 268 270 269 267 265 266 264 266 270 272 270 267 264
243 268 266 287 279 223 227 242 255 261 249 240 231 221 243 243 238 228 218 225 229 215 211 234 221 222 231 230 236 243 236 239 239 237 242 241 245 258 251 234 227 227 222 194 185 186 217 235 223 225 230 229 233 240 244 248 250 248 251 256 256 250 235 226 234 238 235 239 250 251 250 252 250 246 253 260 265 269 271 271 271 270 268 267 266 261 256 257
253 278 284 293 301 289 294 307 315 307 284 277 263 222 252 258 254 258 260 262 245 211 210 227 222 222 227 227 232 237 230 237 241 232 232 235 235 243 251 250 239 220 201 191 199 188 207 235 223 227 235 231 231 236 240 244 249 250 250 250 253 255 249 241 241 243 243 245 251 256 255 253 252 251 252 255 262 270 276 278 276 272 268 265 263 259 257 261
251 265 300 317 298 283 293 299 310 311 291 290 276 248 259 268 269 279 276 257 286 256 230 245 250 246 244 242 243 243 241 246 253 255 257 250 238 238 249 257 261 231 197 208 224 192 205 229 221 224 240 238 233 236 237 239 241 243 245 246 250 253 253 251 250 250 252 254 252 251 252 253 252 252 253 256 263 271 279 279 273 269 268 267 265 263 263 267
248 255 286 312 297 272 281 282 290 305 282 256 248 259 273 270 280 302 289 252 253 257 257 279 292 297 295 286 274 275 290 299 298 303 313 307 290 286 278 270 287 284 223 221 238 198 208 236 230 229 246 237 228 234 236 236 238 239 242 245 246 247 248 249 249 246 246 250 252 250 250 251 248 250 254 259 264 268 270 271 271 270 271 270 268 267 268 270
255 259 272 288 280 258 267 288 296 284 272 264 274 293 292 300 337 341 312 272 268 292 320 336 331 324 312 298 302 320 323 318 309 306 305 296 287 283 280 274 267 259 233 215 248 219 203 232 230 226 246 240 228 233 236 236 238 237 232 234 238 242 247 247 247 246 243 244 249 249 246 249 251 253 258 260 260 259 257 258 261 266 270 272 273 273 271 267